| time (UTC) | temp F | wind direction | speed knots | gust knots | rain 1hr in | rain 24hr in | rain mn in | humidity % | barometer mb |
| 20260505194609 | 67 | 32 | 5.2 | 9.6 | 0.00 | 0.00 | 0.00 | 61 | 1015.5 |
| 20260505193036 | 67 | 32 | 4.3 | 9.6 | 0.00 | 0.00 | 0.00 | 62 | 1015.6 |
| 20260505191534 | 66 | 21 | 4.3 | 8.7 | 0.00 | 0.00 | 0.00 | 62 | 1015.6 |
| 20260505190143 | 66 | 37 | 4.3 | 7.8 | 0.00 | 0.00 | 0.00 | 62 | 1015.6 |
| 20260505184535 | 66 | 33 | 4.3 | 9.6 | 0.00 | 0.00 | 0.00 | 62 | 1015.7 |
| 20260505183036 | 66 | 28 | 3.5 | 7.8 | 0.00 | 0.00 | 0.00 | 62 | 1015.8 |
| 20260505181536 | 65 | 19 | 4.3 | 8.7 | 0.00 | 0.00 | 0.00 | 62 | 1015.8 |
| 20260505180033 | 65 | 36 | 3.5 | 9.6 | 0.00 | 0.00 | 0.00 | 63 | 1015.8 |
| 20260505173030 | 65 | 42 | 3.5 | 7.8 | 0.00 | 0.00 | 0.00 | 63 | 1015.6 |
| 20260505171536 | 65 | 29 | 3.5 | 6.1 | 0.00 | 0.00 | 0.00 | 64 | 1015.7 |
| 20260505170038 | 64 | 24 | 3.5 | 7.0 | 0.00 | 0.00 | 0.00 | 65 | 1015.6 |
| 20260505164609 | 63 | 26 | 2.6 | 6.1 | 0.00 | 0.00 | 0.00 | 67 | 1015.6 |
| 20260505163036 | 63 | 31 | 3.5 | 7.0 | 0.00 | 0.00 | 0.00 | 68 | 1015.5 |
| 20260505153111 | 61 | 35 | 2.6 | 6.1 | 0.00 | 0.00 | 0.00 | 70 | 1015.4 |
| 20260505151536 | 60 | 61 | 1.7 | 3.5 | 0.00 | 0.00 | 0.00 | 71 | 1015.4 |
| 20260505124608 | 56 | 282 | 0.9 | 8.7 | 0.00 | 0.00 | 0.00 | 75 | 1014.3 |
| 20260505123036 | 57 | 268 | 3.5 | 8.7 | 0.00 | 0.00 | 0.00 | 74 | 1014.3 |
| 20260505121535 | 57 | 243 | 4.3 | 9.6 | 0.00 | 0.00 | 0.00 | 74 | 1014.2 |
| 20260505120150 | 58 | 233 | 4.3 | 13.0 | 0.00 | 0.00 | 0.00 | 74 | 1014.2 |
| 20260505114535 | 58 | 242 | 4.3 | 9.6 | 0.00 | 0.00 | 0.00 | 75 | 1014.1 |
| 20260505113033 | 58 | 245 | 4.3 | 9.6 | 0.00 | 0.00 | 0.00 | 75 | 1014.0 |
| 20260505111611 | 58 | 264 | 2.6 | 7.0 | 0.00 | 0.00 | 0.00 | 73 | 1013.9 |
| 20260505101533 | 60 | 231 | 6.1 | 14.8 | 0.00 | 0.00 | 0.00 | 72 | 1013.6 |
| 20260505094534 | 60 | 227 | 7.0 | 12.2 | 0.00 | 0.00 | 0.00 | 71 | 1013.3 |
| 20260505093032 | 61 | 228 | 6.1 | 12.2 | 0.00 | 0.00 | 0.00 | 71 | 1013.3 |
| 20260505090035 | 61 | 227 | 6.1 | 12.2 | 0.00 | 0.00 | 0.00 | 69 | 1013.1 |
| 20260505084536 | 62 | 228 | 7.0 | 13.9 | 0.00 | 0.00 | 0.00 | 69 | 1013.0 |
| 20260505083035 | 62 | 223 | 7.0 | 14.8 | 0.00 | 0.00 | 0.00 | 68 | 1013.0 |
| 20260505081643 | 63 | 217 | 8.7 | 16.5 | 0.00 | 0.00 | 0.00 | 68 | 1012.9 |
| 20260505080030 | 63 | 213 | 8.7 | 18.2 | 0.00 | 0.00 | 0.00 | 68 | 1012.8 |
| 20260505073036 | 63 | 219 | 7.0 | 13.9 | 0.00 | 0.00 | 0.00 | 68 | 1012.7 |
| 20260505071608 | 63 | 214 | 7.8 | 16.5 | 0.00 | 0.00 | 0.00 | 67 | 1012.6 |
| 20260505070037 | 64 | 216 | 7.8 | 16.5 | 0.00 | 0.00 | 0.00 | 67 | 1012.5 |
| 20260505064534 | 64 | 219 | 7.0 | 12.2 | 0.00 | 0.00 | 0.00 | 67 | 1012.5 |
| 20260505063034 | 64 | 223 | 7.8 | 12.2 | 0.00 | 0.00 | 0.00 | 66 | 1012.5 |
| 20260505061538 | 64 | 219 | 7.8 | 14.8 | 0.00 | 0.00 | 0.00 | 65 | 1012.5 |
| 20260505060036 | 64 | 217 | 7.8 | 15.6 | 0.00 | 0.00 | 0.00 | 64 | 1012.5 |
| 20260505054536 | 64 | 213 | 8.7 | 15.6 | 0.00 | 0.00 | 0.00 | 63 | 1012.4 |
| 20260505053037 | 65 | 216 | 7.8 | 17.4 | 0.00 | 0.00 | 0.00 | 61 | 1012.4 |
| 20260505051536 | 65 | 210 | 7.8 | 11.3 | 0.00 | 0.00 | 0.00 | 59 | 1012.3 |
| 20260505041537 | 67 | 219 | 9.6 | 18.2 | 0.00 | 0.00 | 0.00 | 53 | 1011.7 |
| 20260505040110 | 67 | 224 | 9.6 | 20.0 | 0.00 | 0.00 | 0.00 | 50 | 1011.5 |
| 20260505034608 | 68 | 214 | 8.7 | 15.6 | 0.00 | 0.00 | 0.00 | 49 | 1011.2 |
| 20260505033035 | 68 | 214 | 8.7 | 15.6 | 0.00 | 0.00 | 0.00 | 48 | 1011.0 |
| 20260505031536 | 69 | 220 | 8.7 | 14.8 | 0.00 | 0.00 | 0.00 | 47 | 1010.8 |
| 20260505030034 | 70 | 219 | 8.7 | 17.4 | 0.00 | 0.00 | 0.00 | 47 | 1010.5 |
| 20260505024536 | 72 | 218 | 7.8 | 15.6 | 0.00 | 0.00 | 0.00 | 45 | 1010.4 |
| 20260505021535 | 73 | 221 | 7.8 | 13.9 | 0.00 | 0.00 | 0.00 | 44 | 1010.4 |
| 20260505020035 | 75 | 231 | 5.2 | 10.4 | 0.00 | 0.00 | 0.00 | 42 | 1010.4 |
| 20260505014609 | 75 | 242 | 5.2 | 9.6 | 0.00 | 0.00 | 0.00 | 41 | 1010.3 |
| 20260505013036 | 76 | 250 | 5.2 | 12.2 | 0.00 | 0.00 | 0.00 | 39 | 1010.2 |
| 20260505011535 | 77 | 268 | 5.2 | 11.3 | 0.00 | 0.00 | 0.00 | 37 | 1010.2 |
| 20260505010038 | 78 | 261 | 5.2 | 11.3 | 0.00 | 0.00 | 0.00 | 36 | 1010.2 |
| 20260505004535 | 78 | 263 | 6.1 | 13.0 | 0.00 | 0.00 | 0.00 | 34 | 1010.1 |
| 20260505003032 | 79 | 255 | 6.1 | 15.6 | 0.00 | 0.00 | 0.00 | 33 | 1010.0 |
| 20260505001536 | 80 | 250 | 5.2 | 13.0 | 0.00 | 0.00 | 0.00 | 33 | 1009.9 |
| 20260505000111 | 81 | 262 | 5.2 | 13.0 | 0.00 | 0.00 | 0.00 | 33 | 1009.9 |
| 20260504230036 | 82 | 317 | 5.2 | 12.2 | 0.00 | 0.00 | 0.00 | 37 | 1010.0 |
| 20260504224537 | 82 | 9 | 4.3 | 12.2 | 0.00 | 0.00 | 0.00 | 39 | 1010.2 |
| 20260504223035 | 80 | 69 | 2.6 | 10.4 | 0.00 | 0.00 | 0.00 | 40 | 1010.4 |
| 20260504221536 | 80 | 46 | 3.5 | 7.0 | 0.00 | 0.00 | 0.00 | 41 | 1010.5 |
| 20260504220036 | 80 | 24 | 4.3 | 9.6 | 0.00 | 0.00 | 0.00 | 42 | 1010.6 |
| 20260504214536 | 79 | 35 | 4.3 | 8.7 | 0.00 | 0.00 | 0.00 | 43 | 1010.8 |
| 20260504213112 | 78 | 39 | 3.5 | 7.0 | 0.00 | 0.00 | 0.00 | 43 | 1011.0 |
| 20260504211537 | 78 | 39 | 5.2 | 9.6 | 0.00 | 0.00 | 0.00 | 43 | 1011.1 |
| 20260504210037 | 77 | 40 | 5.2 | 8.7 | 0.00 | 0.00 | 0.00 | 44 | 1011.1 |
| 20260504204535 | 77 | 34 | 6.1 | 10.4 | 0.00 | 0.00 | 0.00 | 44 | 1011.2 |
| 20260504203033 | 77 | 28 | 6.1 | 11.3 | 0.00 | 0.00 | 0.00 | 42 | 1011.4 |
| 20260504201610 | 77 | 41 | 4.3 | 8.7 | 0.00 | 0.00 | 0.00 | 43 | 1011.6 |
| 20260504200033 | 77 | 34 | 5.2 | 10.4 | 0.00 | 0.00 | 0.00 | 44 | 1011.7 |